Regional Weather Roundup
Issued by NWS Spokane, WA

Home | Current Version | Previous Version | Text Only | Print | Product List | Glossary On
Versions: 1 2 3 4 5 6 7 8 9 10 11 12 13 14 15 16 17 18 19 20 21 22 23 24 25 26 27 28 29 30 31 32 33 34 35 36 37 38 39 40 41 42 43 44 45 46 47 48 49 50
000
NZUS01 KOTX 301210
RWROTX
EASTERN WASHINGTON/NORTHERN IDAHO ROUNDUP
NATIONAL WEATHER SERVICE, SPOKANE WA
500 AM PDT TUE JUN 30 2015

Note: "fair" indicated few or no clouds below 12,000 feet with no
significant weather and/or obstructions to visibility.

...NORTHEAST WASHINGTON AND NORTHERN IDAHO PANHANDLE...

CITY           SKY/WX    TMP DP  RH WIND       PRES   REMARKS
SPOKANE INTL   PTCLDY    68  56  65 N5        30.02R
SPOKANE DOWNTO CLEAR     66  58  75 CALM      30.01R
COEUR D ALENE  CLEAR     63  55  77 NW3       30.02R
DEER PARK      CLEAR     59  56  89 MISG      30.03R
SANDPOINT      CLEAR     55  55 100 CALM      30.03R
BONNERS FERRY  FOG       55  55 100 CALM      30.06R VSB<1/4

...SOUTHEAST WASHINGTON AND SOUTHERN IDAHO PANHANDLE...

CITY           SKY/WX    TMP DP  RH WIND       PRES   REMARKS
WALLA WALLA    CLEAR     76  56  49 S9        30.00R
PULLMAN/MOSCOW CLEAR     60  54  80 E3        30.04R
LEWISTON       CLEAR     74  58  57 CALM      29.96R
LOWELL           N/A     67  62  84 N3        30.01R

...COLUMBIA BASIN...

CITY           SKY/WX    TMP DP  RH WIND       PRES   REMARKS
EPHRATA        CLEAR     74  53  48 NW8       29.98R
MOSES LAKE     CLEAR     71  53  52 N5        29.99R
TRI CITIES     CLEAR     69  60  73 CALM      29.96R
HERMISTON      CLEAR     67  58  72 CALM      29.97S
PENDLETON      CLEAR     71  54  54 W3        30.02R

...EAST SLOPES CASCADES...

CITY           SKY/WX    TMP DP  RH WIND       PRES   REMARKS
THE DALLES     CLEAR     69  58  67 SW6       29.98R
YAKIMA         CLEAR     67  53  61 VRB6      30.01R
ELLENSBURG     CLEAR     69  55  60 NW10      30.03S
WENATCHEE      LGT RAIN  76  54  46 NW9       30.01R
OMAK           CLEAR     68  59  73 N8        30.02R

...SOUTHERN BRITISH COLUMBIA...

CITY           SKY/WX    TMP DP  RH WIND       PRES   REMARKS
PENTICTON      CLEAR     61  59  94 N7        30.06R
CRANBROOK      PTCLDY    57  52  82 W6        30.07R

...WESTERN MONTANA...

CITY           SKY/WX    TMP DP  RH WIND       PRES   REMARKS
MISSOULA       CLEAR     63  60  90 CALM      30.08R

...NEIGHBORING CITIES...

CITY           SKY/WX    TMP DP  RH WIND       PRES   REMARKS
SEATTLE        MOCLDY    59  57  93 S6        30.11R
CALGARY        MOCLDY    57  55  94 N5        29.95S



USA.gov is the U.S. government's official web portal to all federal, state and local government web resources and services.